Location: Clifton Park
(41.4873°N, 81.8024°W)
Time: 12:14:01
(UTC+00:00)

YAOGAN 1 - Pass Details

Date: 21 January 2020
Orbit: 619 x 621 km, 98.0° (Epoch: 16 February)

Event Time Altitude Azimuth Distance (km) Brightness Sun altitude
Rises 00:31:32 0° 185° (S) 2,882 6.1 -22.9°
Reaches altitude 10° 00:33:50 10° 194° (SSW) 1,981 5.4 -23.3°
Maximum altitude 00:37:51 38° 262° (W) 960 4.0 -24.1°
Drops below altitude 10° 00:41:53 10° 331° (NNW) 1,995 5.4 -24.8°
Sets 00:44:13 0° 339° (NNW) 2,906 6.2 -25.3°
